User: anonymous   Login
Location: Cella
(44.7333°N, 10.5667°E)
Time: 15:41:51
(UTC+00:00)
Language:

COSMOS 2251 DEB - Orbit

View from above orbital plane
View from above orbital plane
View from above satellite
View from above satellite

Ground track
Ground track

The orbit data is extracted from the following two-line orbital elements,

1 34750U 93036ZU  21267.91246455  .00000706  00000-0  21296-3 0  9990
2 34750  74.1177 198.9873 0054911 211.0375 219.4376 14.43419219659158
Epoch (UTC): 24 September 2021 21:53:56
Eccentricity: 0.0054911
inclination: 74.1177°
perigee height: 708 km
apogee height: 786 km
right ascension of ascending node: 198.9873°
argument of perigee: 211.0375°
revolutions per day: 14.43419219
mean anomaly at epoch: 219.4376°
orbit number at epoch: 65915

The dashed part of the orbit path shows where the satellite is in the earth's shadow,  

DLR